Location: Coatesville
(39.9830°N, 75.8240°W)
Time: 13:53:37
(UTC-05:00)

Hubble Space Telescope - Visible Passes

Search period start: 15 November 2019 00:00
Search period end: 25 November 2019 00:00
Orbit: 536 x 540 km, 28.5° (Epoch: 14 November)

Date Brightness Start Highest point End Pass type
(mag) Time Alt. Az. Time Alt. Az. Time Alt. Az.
20 Nov 3.3 17:40:43 10° S 17:41:30 10° SSE 17:42:18 10° SSE visible
20 Nov 3.5 19:19:20 10° SW 19:20:03 13° SSW 19:20:03 13° SSW visible
21 Nov 3.2 17:29:11 10° S 17:30:46 12° SSE 17:32:23 10° SE visible
21 Nov 3.2 19:08:36 10° SW 19:10:04 15° SSW 19:10:04 15° SSW visible
22 Nov 3.2 17:18:02 10° SSW 17:20:03 13° S 17:22:05 10° SE visible
22 Nov 3.1 18:57:55 10° SW 19:00:06 16° S 19:00:06 16° S visible
23 Nov 3.0 18:47:17 10° SW 18:49:48 16° S 18:50:10 16° S visible
24 Nov 3.1 18:36:43 10° SW 18:39:06 15° S 18:40:17 14° SSE visible
